{"data":{"norad_id":62875,"intl_designator":"2025-022X","name":"STARLINK-32834","alt_names":[],"object_type":"PAYLOAD","status":"ACTIVE","operator":null,"country":"US","launch_date":"2025-02-01","launch_site_code":"AFWTR","launch_vehicle":null,"mission":null,"orbit_class":"UNKNOWN","rcs_meters":null,"size_class":null,"mass_kg":null,"dimensions":null,"purposes":["comms"],"wikipedia_slug":null,"has_3d_model":false,"image_url":null,"decayed_at":null,"tle_current":{"epoch":"2026-09-20T19:52:38.853408Z","epoch_age_seconds":139839,"freshness":"FRESH","line1":"1 62875U 25022X   26263.82822747  .00018764  00000+0  56468-3 0  9995","line2":"2 62875  53.1606 299.8905 0001402  79.2504 280.8656 15.34423434 91825","mean_motion":15.34423434,"eccentricity":0.0001402,"inclination_deg":53.1606,"raan_deg":299.8905,"arg_perigee_deg":79.2504,"mean_anomaly_deg":280.8656,"bstar":0.00056468,"rev_number":9182,"period_min":93.846324820923,"perigee_km":461.67451427029,"apogee_km":463.59266634381,"semimajor_km":6840.770590307,"source":"CELESTRAK","updated_at":"2026-09-22T09:00:49.701353Z"}}}